{"data":{"norad_id":87054,"epoch":"2026-09-17T11:41:52.667232Z","epoch_age_seconds":275474,"freshness":"STALE","line1":"1 87054U          26260.48741513  .00001460  00000+0  82564-3 0  9991","line2":"2 87054 100.0799 179.1813 0012688 318.3928  41.6273 14.12077194655657","mean_motion":14.12077194,"eccentricity":0.0012688,"inclination_deg":100.0799,"raan_deg":179.1813,"arg_perigee_deg":318.3928,"mean_anomaly_deg":41.6273,"bstar":0.00082564,"rev_number":65565,"period_min":101.97742772978,"perigee_km":843.09834739862,"apogee_km":861.44623401472,"semimajor_km":7230.4092907067,"source":"CELESTRAK","updated_at":"2026-09-20T09:00:32.449914Z"}}